AirNav   TITAN Aviation Fuels
 
 693 users online  

08TX Cross Wind Airport
Weatherford, Texas, USA

GOING TO WEATHERFORD?


FAA INFORMATION EFFECTIVE 22 APRIL 2021

Location

FAA Identifier: 08TX
Lat/Long: 32-51-29.4520N 097-44-51.1060W
32-51.490867N 097-44.851767W
32.8581811,-97.7475294
(estimated)
Elevation: 1040 ft. / 317 m (estimated)
Variation: 07E (1985)
From city: 6 miles N of WEATHERFORD, TX
Time zone: UTC -5 (UTC -6 during Standard Time)
Zip code: 76086

Airport Operations

Airport use: Private use. Permission required prior to landing
Activation date: 04/1983
Control tower: no
ARTCC: FORT WORTH CENTER
FSS: FORT WORTH FLIGHT SERVICE STATION
Attendance: UNATNDD
Wind indicator: yes
Segmented circle: no
Lights: FOR LIRL RY 09/27 CALL 817-594-0406.

Airport Communications

WX ASOS at MWL (16 nm W): 135.075 (940-325-2457)
WX AWOS-3 at XBP (19 nm N): 119.225 (940-683-8027)
WX ASOS at FTW (20 nm E): PHONE 817-740-3346

Nearby radio navigation aids

VOR radial/distance  VOR name  Freq  Var
MQPr049/14.9MILLSAP VORTAC117.7009E
FUZr260/28.7RANGER VORTAC115.7006E
TTTr263/35.6MAVERICK VOR/DME113.1006E

Airport Services

Runway Information

Runway 9/27

Dimensions: 2100 x 30 ft. / 640 x 9 m
Surface: turf
Runway edge lights: low intensity
RUNWAY 9  RUNWAY 27
Traffic pattern: leftleft
Displaced threshold: 800 ft.no
Obstructions: roadnone

Runway 18/36

Dimensions: 1800 x 100 ft. / 549 x 30 m
Surface: turf
RUNWAY 18  RUNWAY 36
Traffic pattern: leftleft

Airport Ownership and Management from official FAA records

Ownership: Privately-owned
Owner: JOE D RISLEY
4620 FARM ROAD 51 N
WEATHERFORD, TX 76085
Phone 817-597-4578
Manager: JOE D RISLEY
4620 FARM ROAD 51 N
WEATHERFORD, TX 76085
Phone 817-597-4578

Airport Operational Statistics

Aircraft based on the field: 3
Single engine airplanes: 3
    

Additional Remarks

FOR CD CTC FORT WORTH ARTCC AT 817-858-7584.

Instrument Procedures

There are no published instrument procedures at 08TX.

Some nearby airports with instrument procedures:

KWEA - Parker County Airport (7 nm SE)
4T2 - Kenneth Copeland Airport (15 nm NE)
KNFW - Fort Worth Naval Air Station JRB (Carswell Field) Airport (16 nm E)
KMWL - Mineral Wells Regional Airport (16 nm W)
50F - Bourland Field Airport (18 nm SE)
KXBP - Bridgeport Municipal Airport (19 nm N)
KFTW - Fort Worth Meacham International Airport (20 nm E)
 
Loc | Ops | Rwys | IFR | FBO | Links
Com | Nav | Svcs | Stats | Notes

City of Fort Worth
 
Area around 08TX (Cross Wind Airport)
 
Road maps at: MapQuest Bing Google
 
Aerial photo
No photo
 
Sectional chart

 
Airport distance calculator
Flying to Cross Wind Airport? Find the distance to fly.

From to 08TX

Sunrise and sunset
Times for 13-May-2021
 Local
(UTC-5)
 Zulu
(UTC)
Morning civil twilight06:0711:07
Sunrise06:3411:34
Sunset20:2001:20
Evening civil twilight20:4701:47

Current date and time
Zulu (UTC)  14-May-2021 04:48:20
Local (UTC-5)  13-May-2021 23:48:20
 
METAR
KNFW 
16nm E 
140352Z 12003KT 10SM CLR 18/10 A3024 RMK AO2 SLP222 T01830100 $
KMWL 
17nm W 
140353Z AUTO 00000KT 10SM OVC055 16/12 A3023 RMK AO2 SLP231 T01560117
KFTW 
19nm E 
140353Z 08003KT 10SM CLR 17/10 A3023 RMK AO2 SLP233 T01670100
KXBP 
19nm N 
140435Z AUTO 00000KT 10SM SCT060 11/11 A3028 RMK AO2 T01120112
KAFW 
23nm E 
140353Z 09003KT 10SM FEW150 18/09 A3024 RMK AO2 SLP233 T01780089
KGDJ 
25nm S 
AWOS-3 118.925 817-573-7514
140435Z AUTO 00000KT 10SM CLR 15/12 A3026 RMK AO2 T01500121
KLUD 
25nm N 
118.22 940-927-2365
140435Z AUTO 00000KT 10SM CLR 15/11 A3026 RMK AO2 T01480105
KFWS 
29nm SE 
140435Z AUTO 00000KT 10SM CLR 15/10 A3027 RMK AO2 T01500106
TAF
KNFW 
16nm E 
1323/1423 VRB06KT 9999 BKN055 QNH3017INS TEMPO 1323/1402 SCT055 FM140200 VRB06KT 9999 SCT055 QNH3017INS FM141400 VRB06KT 9999 SCT020 QNH3016INS BECMG 1416/1418 16009G19KT 9999 BKN045 QNH3004INS TEMPO 1418/1423 SCT045 AUTOMATED SENSOR METWATCH 1404 TIL 1411 T16/1412Z T24/1423Z FN20070
KFTW 
19nm E 
140257Z 1403/1424 12005KT P6SM SCT040 FM141000 14005KT P6SM BKN030 FM141600 16011KT P6SM SCT050
NOTAMs
Click for the latest NOTAMs
NOTAMs are issued by the DoD/FAA and will open in a separate window not controlled by AirNav.

 

 
 

Would you like to see your business listed on this page?

 If your business provides an interesting product or service to pilots, flight crews, aircraft, or users of the Cross Wind Airport, you should consider listing it here.  To start the listing process, click on the button below
 
Add a business
 

Other Pages about Cross Wind Airport

Update a link
 
Copyright © AirNav, LLC. All rights reserved. Privacy Policy  Contact